Regional Weather Roundup
Issued by NWS

Home | Current Version | Previous Version | Text Only | Print | Product List | Glossary Off
Versions: 1 2 3 4 5 6 7 8 9 10 11 12 13 14 15 16 17 18 19 20 21 22 23 24 25 26 27 28 29 30 31 32 33 34 35 36 37 38 39 40 41 42 43 44 45 46 47 48 49 50

000
ASUS43 KFSD 170510
RWRSD

WEATHER ROUNDUP FOR SOUTH DAKOTA
NATIONAL WEATHER SERVICE SIOUX FALLS SD
1200 AM CDT THU APR 17 2014

NOTE: "FAIR" INDICATES FEW OR NO CLOUDS BELOW 12,000 FEET WITH NO
SIGNIFICANT WEATHER AND/OR OBSTRUCTIONS TO VISIBILITY.


SDZ001>005-009-010-012>017-170600-
NORTHWEST AND NORTH CENTRAL SOUTH DAKOTA

CITY           SKY/WX    TMP DP  RH WIND       PRES   REMARKS
BUFFALO          N/A     30  24  78 E12       30.10F WCI  20
FAITH            N/A     27  22  81 E8        30.19S WCI  19
MOBRIDGE       CLOUDY    29  18  63 NE12      30.21R WCI  19
$$

SDZ012>016-024>037-041>051-057-063-072>074-170600-
SOUTHWEST AND SOUTH CENTRAL SOUTH DAKOTA

CITY           SKY/WX    TMP DP  RH WIND       PRES   REMARKS
RAPID CTY ARPT CLOUDY    31  24  75 S7        30.17F WCI  24
PIERRE         PTCLDY    24  18  77 N5        30.23R WCI  18
CUSTER         CLOUDY    25  23  92 E6        30.08R FOG     WCI  18
ELLSWORTH AFB  CLOUDY    31  26  78 S7        30.16F WCI  25
PHILIP         CLOUDY    33  23  66 SE7       30.21S WCI  27
PINE RIDGE     CLOUDY    30  26  85 E9        30.16R WCI  22
SPEARFISH      FAIR      28  25  86 E9        30.10F WCI  20
WINNER         FAIR      27  21  78 N6        30.22R WCI  20
$$

SDZ004>011-016>023-039-040-170600-
NORTHEAST SOUTH DAKOTA

CITY           SKY/WX    TMP DP  RH WIND       PRES   REMARKS
ABERDEEN       CLEAR     20  17  88 NW8       30.23R WCI  10
WATERTOWN      CLEAR     20  17  88 N8        30.15R WCI  10
SISSETON         N/A     21  18  88 N9        30.19S WCI  11
$$

SDZ017-020-022-023-036>040-048>070-170600-
SOUTHEAST SOUTH DAKOTA

CITY           SKY/WX    TMP DP  RH WIND       PRES   REMARKS
SIOUX FALLS    CLOUDY    28  24  85 N16       30.13R WCI  16
HURON          CLEAR     25  21  85 N6        30.21R WCI  18
CHAMBERLAIN      N/A     27  22  81 N6        30.22R WCI  20
MITCHELL       CLOUDY    32  23  69 N14       30.20R WCI  22
YANKTON        CLOUDY    30  25  80 N18G24    30.17R WCI  18
$$

ABBREVIATIONS USED IN REMARKS
   TC - TEMPERATURE IN CELSIUS
  WCI - WIND CHILL INDEX
   HX - HEAT INDEX
  VSB - VISIBILITY




USA.gov is the U.S. government's official web portal to all federal, state and local government web resources and services.